Simultaneous Nadir Overpasses (SNOs) Predictions

Prediction of SNOs between FY3D and AQUA Satellite Orbit:

Table of predicted SNOs for the next 14.0 days since TLE Epoch: 5/1/2021
Index Date (FY3D) Time (FY3D) Lat,Lon (FY3D) SZA (FY3D ) Date (AQUA) Time (AQUA) Lat,Lon (AQUA) SZA (AQUA ) Distance(km) Time Diff (sec)
1 05/03/2021 12:24:12 -77.55, 62.23 101.06 05/03/2021 12:25:25 -78.02, 60.04 100.89 73.14 73
2 05/03/2021 13:00:12 46.06, -0.10 32.81 05/03/2021 13:00:30 46.08, 0.17 32.94 20.96 18
3 05/03/2021 13:51:53 -49.47, 165.80 144.51 05/03/2021 13:50:53 -49.60, 166.44 144.29 48.22 60
4 05/06/2021 04:46:16 -59.64, 147.80 82.79 05/06/2021 04:47:29 -59.87, 146.30 82.60 87.77 73
5 05/06/2021 05:16:31 46.09, 115.83 32.14 05/06/2021 05:16:58 46.15, 116.03 32.30 16.92 27
6 05/06/2021 06:08:04 -49.03, -78.07 145.57 05/06/2021 06:07:12 -49.13, -77.48 145.38 43.98 52
7 05/08/2021 21:32:51 46.11,-128.24 31.50 05/08/2021 21:33:26 46.16,-128.09 31.64 13.02 35
8 05/08/2021 22:24:14 -48.49, 38.10 146.68 05/08/2021 22:23:31 -48.61, 38.61 146.48 39.71 43
9 05/11/2021 13:49:10 46.09, -12.30 30.84 05/11/2021 13:49:53 46.13, -12.19 30.98 9.26 43
10 05/11/2021 14:40:26 -48.06, 154.22 147.66 05/11/2021 14:39:51 -48.15, 154.68 147.49 35.35 35
11 05/14/2021 06:05:29 46.06, 103.65 30.22 05/14/2021 06:06:19 46.05, 103.72 30.31 5.65 50



Historial Predications of SNOs between FY3D and AQUA
